Portada
METAR-TAF:

METAR-TAF

Aeropuertos :

Tetuán, Marruecos

Aeropuerto de Tetuán-Sania Ramel

latitud: 35-35N, longitud: 005-20W, altitud: 10 m

Observación

El informe se hizo hace 48 minutos, a las 02:00 UTC
Viento 12 kt del oeste-suroeste
Temperatura 11°C
Humedad 71%
Presión 1021 hPa

METAR: GMTN 180200Z AUTO 24012KT NCD 11/06 Q1021

Hora: 02:48 (02:48 UTC)


TAF: falta

Observaciones y pronósticos meteorológicos de más de 4000 aeropuertos (mensajes METAR y TAF).

Los puntos amarillos y rojos representan las estaciones disponibles.

Ponga el ratón en el punto deseado para ver el nombre de la estación.

Haga clic para ver las observaciones y los pronósticos meteorológicos.

Para cambiar el mapa : haga clic en los botones verdes con una cruz de color negro para hacer un zoom, en el botón verde con un guión para alejar o en las flechas verdes para mapas adyacentes.


METAR-TAF: